Biloxi, MS

8:37 PM CDT on March 30, 2017 (GMT -0500)
Keesler Air Force Base

Weather History for KBIX - September, 2014

Change the Weather History Date:

Tuesday, September 23, 2014

  Actual Average Record
Temperature  
Mean Temperature 74 °F -  
Max Temperature 86 °F 85 °F 92 °F (1978)
Min Temperature 62 °F 67 °F 49 °F (1983)
Cooling Degree Days 8    
Growing Degree Days 24 (Base 50)    
Moisture  
Dew Point 56 °F    
Average Humidity 56    
Maximum Humidity 74    
Minimum Humidity 35    
Precipitation  
Precipitation 0.00 in - - ()
Sea Level Pressure  
Sea Level Pressure 30.08 in    
Wind  
Wind Speed 8 mph (NE)    
Max Wind Speed 13 mph    
Max Gust Speed -    
Visibility 10 miles    
Events      
Averages and records for this station are not official NWS values.
T = Trace of Precipitation, MM = Missing Value Source: NWS Daily Summary

Daily Weather History Graph

Daily Weather History Graph

Search for Another Location

Airport or City:

Trip Planner

Search our weather history database for the weather conditions in past years. The results will help you decide how hot, cold, wet, or windy it might be!

Date:

Astronomy

Sep. 23, 2014 Rise Set
Actual Time 6:44 AM CDT 6:50 PM CDT
Civil Twilight 6:20 AM CDT 7:14 PM CDT
Nautical Twilight 5:52 AM CDT 7:42 PM CDT
Astronomical Twilight 5:24 AM CDT 8:10 PM CDT
Moon 6:09 AM CDT (9/23) 6:30 PM CDT (9/23)
Length of Visible Light 12h 54m
Length of Day
12h 06m
Waning Crescent, 0% of the Moon is Illuminated
Sep 23
Waning Crescent
Sep 24
New
Oct 1
First Quarter
Oct 8
Full
Oct 15
Last Quarter

Hourly Weather History & Observations

Time (CDT) Temp. Heat Index Dew Point Humidity Pressure Visibility Wind Dir Wind Speed Gust Speed Precip Events Conditions
12:58 AM 68.4 °F - 55.6 °F 64% 30.06 in 10.0 mi NNE 9.2 mph - N/A   Clear
1:58 AM 68.2 °F - 54.9 °F 62% 30.06 in 10.0 mi NE 8.1 mph - N/A   Clear
2:58 AM 65.3 °F - 54.1 °F 67% 30.06 in 10.0 mi NE 6.9 mph - N/A   Clear
3:58 AM 63.9 °F - 54.5 °F 72% 30.07 in 10.0 mi NE 8.1 mph - N/A   Clear
4:58 AM 62.8 °F - 54.5 °F 74% 30.07 in 10.0 mi NNE 8.1 mph - N/A   Clear
5:58 AM 62.4 °F - 54.0 °F 74% 30.08 in 10.0 mi NE 8.1 mph - N/A   Clear
6:58 AM 62.2 °F - 53.8 °F 74% 30.10 in 10.0 mi NE 8.1 mph - N/A   Clear
7:58 AM 64.8 °F - 54.0 °F 68% 30.11 in 10.0 mi NE 12.7 mph - N/A   Clear
8:58 AM 68.5 °F - 54.3 °F 60% 30.12 in 10.0 mi ENE 11.5 mph - N/A   Clear
9:58 AM 73.6 °F - 56.7 °F 55% 30.12 in 10.0 mi NNE 8.1 mph - N/A   Clear
10:58 AM 77.5 °F - 57.9 °F 51% 30.12 in 10.0 mi NNE 6.9 mph - N/A   Clear
11:58 AM 81.1 °F 80.7 °F 53.8 °F 39% 30.10 in 10.0 mi ENE 10.4 mph - N/A   Clear
12:58 PM 82.6 °F 81.7 °F 54.5 °F 38% 30.10 in 10.0 mi ENE 6.9 mph - N/A   Clear
1:58 PM 83.7 °F 82.5 °F 55.0 °F 37% 30.08 in 10.0 mi NNE 9.2 mph - N/A   Clear
2:58 PM 85.3 °F 83.9 °F 55.4 °F 36% 30.05 in 10.0 mi ENE 8.1 mph - N/A   Clear
3:58 PM 85.6 °F 84.1 °F 55.4 °F 35% 30.04 in 10.0 mi NE 8.1 mph - N/A   Clear
4:58 PM 84.9 °F 85.2 °F 61.2 °F 45% 30.04 in 10.0 mi Variable 4.6 mph - N/A   Clear
5:58 PM 83.1 °F 82.4 °F 56.7 °F 40% 30.04 in 10.0 mi ENE 9.2 mph - N/A   Clear
6:58 PM 78.6 °F - 55.8 °F 45% 30.05 in 10.0 mi ENE 6.9 mph - N/A   Clear
7:58 PM 75.4 °F - 54.7 °F 48% 30.06 in 10.0 mi ENE 5.8 mph - N/A   Clear
8:58 PM 74.5 °F - 56.5 °F 53% 30.09 in 10.0 mi ESE 5.8 mph - N/A   Clear
9:58 PM 74.5 °F - 59.2 °F 59% 30.09 in 10.0 mi East 10.4 mph - N/A   Clear
10:58 PM 71.2 °F - 59.4 °F 66% 30.11 in 10.0 mi East 5.8 mph - N/A   Clear
11:58 PM 69.1 °F - 60.3 °F 73% 30.11 in 10.0 mi ENE 5.8 mph - N/A   Clear